Tracking 33831 objects as of 16-Apr-2026
HD Live streaming from Space Station
objects crossing your sky now

ARIANE 1 DEB

Track ARIANE 1 DEB now!


NORAD ID: 48343
Int'l Code: 1981-057G
Perigee: 565.8 km
Apogee: 28,450.7 km
Inclination: 11.2 °
Period: 500.4 minutes
Semi major axis: 20879 km
RCS: Unknown
Launch date: June 19, 1981
Source: European Space Agency (ESA)
Launch site: FRENCH GUIANA (FRGUI)

Note: This is SATELLITE DEBRIS
Your satellite tracking list
Your tracking list is empty




NASA's NSSDC Master Catalog

Two Line Element Set (TLE):
1 48343U 81057G   26106.20682311 -.00000448  00000-0 -32669-2 0  9997
2 48343  11.1591   0.8933 6677641 313.1615 292.6310  2.87760189128543
Source of the keplerian elements: AFSPC